Weather History for Clinton, AR

Change the Weather History Date:

Friday, April 12, 2013

  Actual Average (KFLP) Record (KFLP)
Temperature  
Mean Temperature 52 °F -  
Max Temperature 71 °F 68 °F 84 °F (2006)
Min Temperature 33 °F 45 °F 35 °F (1997)
Degree Days  
Heating Degree Days 13    
Growing Degree Days 2 (Base 50)    
Moisture  
Dew Point 36 °F    
Average Humidity 64    
Maximum Humidity 100    
Minimum Humidity 25    
Precipitation  
Precipitation 0.00 in - - ()
Sea Level Pressure  
Sea Level Pressure 29.91 in    
Wind  
Wind Speed 2 mph (WNW)    
Max Wind Speed 15 mph    
Max Gust Speed 23 mph    
Visibility 10 miles    
Events Rain    
Averages and records for this station are not official NWS values.
T = Trace of Precipitation, MM = Missing Value Source: NWS Daily Summary

Daily Weather History Graph

Daily Weather History Graph

Search for Another Location

Airport:

Trip Planner

Search our weather history database for the weather conditions in past years. The results will help you decide how hot, cold, wet, or windy it might be!

Date:

Astronomy

Apr. 12, 2013 Rise Set
Actual Time 6:40 AM CDT 7:40 PM CDT
Civil Twilight 6:14 AM CDT 8:06 PM CDT
Nautical Twilight 5:43 AM CDT 8:37 PM CDT
Astronomical Twilight 5:11 AM CDT 9:10 PM CDT
Moon 7:55 AM CDT (4/12) 10:06 PM CDT (4/12)
Length of Visible Light 13h 52m
Length of Day
12h 59m
Waxing Crescent, 5% of the Moon is Illuminated
Apr 12
Waxing Crescent
Apr 18
First Quarter
Apr 25
Full
May 2
Last Quarter
May 9
New

Hourly Weather History & Observations

Time (CDT) Temp. Dew Point Humidity Pressure Visibility Wind Dir Wind Speed Gust Speed Precip Events Conditions
12:15 AM 39.2 °F 37.4 °F 93% 29.84 in 10.0 mi Calm Calm - N/A   Clear
12:35 AM 39.2 °F 37.4 °F 93% 29.84 in 10.0 mi Calm Calm - N/A   Clear
12:55 AM 39.2 °F 37.4 °F 93% 29.85 in 10.0 mi Calm Calm - N/A   Clear
1:15 AM 37.4 °F 37.4 °F 100% 29.85 in 10.0 mi Calm Calm - N/A   Clear
1:35 AM 37.4 °F 35.6 °F 93% 29.85 in 10.0 mi Calm Calm - N/A   Clear
1:55 AM 37.4 °F 35.6 °F 93% 29.86 in 10.0 mi Calm Calm - N/A   Clear
2:15 AM 37.4 °F 35.6 °F 93% 29.86 in 10.0 mi Calm Calm - N/A   Clear
2:35 AM 37.4 °F 35.6 °F 93% 29.86 in 10.0 mi Calm Calm - N/A   Clear
2:55 AM 37.4 °F 35.6 °F 93% 29.85 in 9.0 mi Calm Calm - N/A   Clear
3:15 AM 35.6 °F 35.6 °F 100% 29.86 in 9.0 mi Calm Calm - N/A   Clear
3:35 AM 35.6 °F 33.8 °F 93% 29.86 in 9.0 mi Calm Calm - N/A   Clear
3:55 AM 35.6 °F 33.8 °F 93% 29.87 in 10.0 mi Calm Calm - N/A   Clear
4:15 AM 35.6 °F 33.8 °F 93% 29.87 in 9.0 mi Calm Calm - N/A   Clear
4:35 AM 35.6 °F 33.8 °F 93% 29.87 in 8.0 mi Calm Calm - N/A   Clear
4:55 AM 35.6 °F 33.8 °F 93% 29.87 in 7.0 mi Calm Calm - N/A   Clear
5:15 AM 33.8 °F 33.8 °F 100% 29.88 in 9.0 mi Calm Calm - N/A   Clear
5:35 AM 33.8 °F 33.8 °F 100% 29.89 in 7.0 mi Calm Calm - N/A   Clear
5:55 AM 33.8 °F 33.8 °F 100% 29.89 in 8.0 mi Calm Calm - N/A   Partly Cloudy
6:15 AM 33.8 °F 33.8 °F 100% 29.89 in 7.0 mi Calm Calm - N/A   Clear
6:35 AM 33.8 °F 33.8 °F 100% 29.89 in 8.0 mi Calm Calm - N/A   Clear
6:55 AM 33.8 °F 33.8 °F 100% 29.90 in 7.0 mi Calm Calm - N/A   Clear
7:15 AM 33.8 °F 33.8 °F 100% 29.90 in 7.0 mi Calm Calm - N/A   Clear
7:35 AM 35.6 °F 33.8 °F 93% 29.91 in 8.0 mi Calm Calm - N/A   Clear
7:55 AM 37.4 °F 35.6 °F 93% 29.91 in 10.0 mi Calm Calm - N/A   Clear
8:15 AM 39.2 °F 37.4 °F 93% 29.91 in 10.0 mi Calm Calm - N/A   Clear
8:35 AM 42.8 °F 37.4 °F 81% 29.92 in 10.0 mi Calm Calm - N/A   Clear
8:55 AM 44.6 °F 37.4 °F 76% 29.92 in 10.0 mi Calm Calm - N/A   Clear
9:15 AM 46.4 °F 39.2 °F 76% 29.93 in 10.0 mi Calm Calm - N/A   Clear
9:55 AM 53.6 °F 39.2 °F 58% 29.93 in 10.0 mi Calm Calm - N/A   Clear
10:15 AM 55.4 °F 37.4 °F 51% 29.93 in 10.0 mi NNW 3.5 mph - N/A   Clear
10:35 AM 57.2 °F 37.4 °F 48% 29.92 in 10.0 mi Calm Calm - N/A   Clear
10:55 AM 59.0 °F 37.4 °F 45% 29.92 in 8.0 mi North 4.6 mph - N/A Rain Light Rain
11:15 AM 60.8 °F 37.4 °F 42% 29.92 in 10.0 mi Calm Calm - N/A   Clear
11:35 AM 62.6 °F 37.4 °F 39% 29.92 in 10.0 mi WNW 5.8 mph - N/A   Clear
11:55 AM 62.6 °F 35.6 °F 37% 29.92 in 10.0 mi WSW 12.7 mph 20.7 mph N/A   Clear
12:15 PM 64.4 °F 35.6 °F 34% 29.92 in 10.0 mi West 12.7 mph 20.7 mph N/A   Clear
12:35 PM 64.4 °F 35.6 °F 34% 29.92 in 10.0 mi West 15.0 mph 18.4 mph N/A   Clear
12:55 PM 66.2 °F 35.6 °F 32% 29.92 in 10.0 mi WSW 11.5 mph 18.4 mph N/A   Clear
1:15 PM 66.2 °F 35.6 °F 32% 29.92 in 10.0 mi WNW 11.5 mph - N/A   Clear
1:35 PM 68.0 °F 35.6 °F 30% 29.91 in 10.0 mi NW 15.0 mph 19.6 mph N/A   Clear
1:55 PM 68.0 °F 35.6 °F 30% 29.91 in 10.0 mi NW 15.0 mph 23.0 mph N/A   Clear
2:15 PM 68.0 °F 33.8 °F 28% 29.91 in 10.0 mi West 11.5 mph 16.1 mph N/A   Clear
2:35 PM 69.8 °F 35.6 °F 28% 29.91 in 10.0 mi WNW 8.1 mph 16.1 mph N/A   Clear
2:55 PM 69.8 °F 35.6 °F 28% 29.91 in 10.0 mi West 10.4 mph 18.4 mph N/A   Clear
3:15 PM 69.8 °F 33.8 °F 27% 29.90 in 10.0 mi WNW 13.8 mph 20.7 mph N/A   Clear
3:35 PM 69.8 °F 33.8 °F 27% 29.90 in 10.0 mi West 6.9 mph - N/A   Clear
3:55 PM 69.8 °F 32.0 °F 25% 29.90 in 10.0 mi West 9.2 mph - N/A   Clear
4:15 PM 71.6 °F 33.8 °F 25% 29.90 in 10.0 mi WNW 12.7 mph 17.3 mph N/A   Clear
4:35 PM 69.8 °F 32.0 °F 25% 29.90 in 10.0 mi WNW 9.2 mph 19.6 mph N/A   Clear
4:55 PM 69.8 °F 32.0 °F 25% 29.89 in 10.0 mi NW 9.2 mph 18.4 mph N/A   Clear
5:15 PM 69.8 °F 32.0 °F 25% 29.90 in 10.0 mi WNW 6.9 mph - N/A   Clear
5:35 PM 69.8 °F 32.0 °F 25% 29.90 in 10.0 mi NW 5.8 mph - N/A   Clear
5:55 PM 69.8 °F 32.0 °F 25% 29.91 in 10.0 mi West 9.2 mph - N/A   Clear
6:15 PM 68.0 °F 35.6 °F 30% 29.91 in 10.0 mi SW 3.5 mph - N/A   Clear
6:35 PM 68.0 °F 32.0 °F 26% 29.91 in 10.0 mi Calm Calm - N/A   Clear
6:55 PM 66.2 °F 32.0 °F 28% 29.92 in 10.0 mi NNW 4.6 mph - N/A   Clear
7:15 PM 64.4 °F 32.0 °F 30% 29.92 in 10.0 mi WNW 4.6 mph - N/A   Clear
7:35 PM 62.6 °F 37.4 °F 39% 29.93 in 10.0 mi Calm Calm - N/A   Clear
7:55 PM 57.2 °F 39.2 °F 51% 29.94 in 10.0 mi Calm Calm - N/A   Clear
8:15 PM 55.4 °F 37.4 °F 51% 29.95 in 10.0 mi Calm Calm - N/A   Light Drizzle
8:35 PM 53.6 °F 39.2 °F 58% 29.96 in 10.0 mi Calm Calm - N/A   Clear
8:55 PM 51.8 °F 39.2 °F 62% 29.97 in 10.0 mi Calm Calm - N/A   Clear
9:15 PM 48.2 °F 42.8 °F 82% 29.98 in 10.0 mi Calm Calm - N/A   Clear
9:35 PM 48.2 °F 41.0 °F 76% 29.99 in 10.0 mi Calm Calm - N/A   Clear
9:55 PM 46.4 °F 41.0 °F 81% 30.00 in 10.0 mi Calm Calm - N/A   Clear
10:15 PM 48.2 °F 42.8 °F 82% 30.01 in 10.0 mi Calm Calm - N/A   Clear
10:35 PM 46.4 °F 39.2 °F 76% 30.01 in 10.0 mi Calm Calm - N/A   Clear
10:55 PM 46.4 °F 41.0 °F 81% 30.02 in 10.0 mi Calm Calm - N/A   Clear
11:15 PM 46.4 °F 41.0 °F 81% 30.02 in 10.0 mi Calm Calm - N/A   Clear
11:35 PM 46.4 °F 39.2 °F 76% 30.03 in 10.0 mi Calm Calm - N/A   Clear
11:55 PM 44.6 °F 39.2 °F 81% 30.04 in 10.0 mi Calm Calm - N/A   Clear